User: anonymous   Login
Location: Misciano
(43.5000°N, 11.9500°E)
Time: 16:22:36
(UTC+00:00)
Language:

Cosmos 1869 Rocket - Orbit

View from above orbital plane
View from above orbital plane
View from above satellite
View from above satellite

Ground track
Ground track

The orbit data is extracted from the following two-line orbital elements,

1 18215U 87062B   20296.22151944  .00000108  00000-0  10210-4 0  9994
2 18215  82.5152 217.2294 0021852  57.7374  95.1558 14.83231069797250
Epoch (UTC): 22 October 2020 05:18:59
Eccentricity: 0.0021852
inclination: 82.5152°
perigee height: 604 km
apogee height: 634 km
right ascension of ascending node: 217.2294°
argument of perigee: 57.7374°
revolutions per day: 14.83231069
mean anomaly at epoch: 95.1558°
orbit number at epoch: 79725

The dashed part of the orbit path shows where the satellite is in the earth's shadow,  

DLR